[[{"header":{"parameterUnit":"m.s-1","parameterCategory":1,"la1":30.2991,"la2":30.254,"lo1":-89.0895,"lo2":-89.0444,"dy":0.0017,"dx":0.0017,"nx":28,"ny":28,"refTime":"2023-08-04T03:00:00:Z","depth":0,"parameterNumber":2,"parameterNumberName":"U-component_of_WINDS"},"data":[0,0,0,0,0,0,0,0,0,0,0,0,0,0,0,0,0,0,0,0,0,0,0,0,0,0,0,0,0,0,0,0,0,0,0,0,0,0,0,0,0,0,0,0,0,0,0,0,0,0,0,0,0,0,0,0,0,0,2.2294,2.2294,0,2.233,2.233,2.2331,2.2326,2.2325,2.2324,2.2324,2.2363,2.2364,2.2366,0,0,0,0,0,0,0,0,0,0,0,0,0,2.2223,2.2224,2.2294,2.2294,2.2294,2.233,2.233,2.2331,2.2326,2.2325,2.2324,2.2323,2.2362,2.2364,2.2366,0,0,0,0,0,0,0,0,0,0,0,0,0,2.2256,2.2225,2.2293,2.2296,2.2297,2.233,2.233,2.2331,2.2326,2.2325,2.2324,2.2323,2.2362,2.2364,2.2366,2.2399,0,0,2.2374,2.2375,0,0,0,0,0,0,0,0,2.2254,2.2259,2.2295,2.2296,2.2297,2.2322,2.232,2.2354,2.2326,2.2315,2.2324,2.2323,2.235,2.2353,2.2362,2.2401,2.2403,2.2374,2.2375,2.2376,2.2377,0,0,0,0,0,0,0,2.2252,2.2257,2.2308,2.2296,2.2297,2.2297,2.23,2.2326,2.2337,2.2316,2.2315,2.232,2.235,2.236,2.2363,2.2403,2.2374,2.2376,2.2377,2.2378,2.2475,2.2476,0,0,0,0,0,0,2.2248,2.2255,2.2307,2.2309,2.2273,2.2299,2.2303,2.2315,2.2337,2.2339,2.232,2.2319,2.2356,2.236,2.2364,2.2407,2.2376,2.2379,2.238,2.2474,2.2475,2.2476,0,0,0,0,0,0,2.2247,2.2253,2.2305,2.2282,2.2289,2.2301,2.2315,2.2316,2.2326,2.234,2.2343,2.2328,2.2356,2.2361,2.2391,2.2408,2.238,2.2382,2.2472,2.2474,2.2476,2.249,0,0,0,0,0,0,2.2245,2.2253,2.2264,2.2282,2.229,2.2331,2.2316,2.2318,2.233,2.2329,2.2348,2.2351,2.2355,2.2388,2.2394,2.2411,2.2384,2.2471,2.2473,2.2475,2.2489,2.2492,2.2496,0,0,0,0,0,2.2242,2.2267,2.2265,2.2271,2.2305,2.2331,2.2336,2.2341,2.2331,2.2344,2.2354,2.235,2.2405,2.2391,2.2398,2.2416,2.247,2.2472,2.2475,2.2487,2.2492,2.2496,0,0,0,0,0,0,2.2251,2.2269,2.2267,2.2298,2.2313,2.2331,2.2347,2.2345,2.2364,2.2362,2.2367,2.2372,2.2403,2.2412,2.2396,2.245,2.2436,2.244,2.2443,2.2448,2.2451,2.2449,2.2386,0,0,0,0,0,2.2256,2.2275,2.2291,2.2316,2.2324,2.2334,2.2346,2.2348,2.2365,2.2371,2.2383,2.24,2.2421,2.2435,2.2455,2.249,2.2495,2.2506,2.2509,2.2512,2.2516,2.2538,2.2543,2.2484,2.2484,2.2484,0,0,2.2267,2.228,2.2292,2.2319,2.2331,2.2352,2.234,2.2362,2.2378,2.2375,2.2404,2.2414,2.2433,2.2466,2.2482,2.2475,2.2534,2.2515,2.2518,2.252,2.2541,2.2547,2.2551,2.2486,2.2486,2.2486,0,0,2.2299,2.231,2.2333,2.2346,2.2365,2.2371,2.2377,2.2395,2.2402,2.2431,2.243,2.245,2.2486,2.25,2.2512,2.2552,2.255,2.2558,2.2578,2.2599,2.2603,2.2608,2.2624,2.2629,2.2562,2.2562,2.2562,0,2.2311,2.2342,2.2346,2.2369,2.2382,2.238,2.2405,2.2417,2.2442,2.2451,2.2443,2.249,2.2503,2.2541,2.2551,2.256,2.2568,2.2556,2.2602,2.2606,2.261,2.2626,2.2632,2.2563,2.2563,2.2563,2.2563,0,2.2357,2.2379,2.2396,2.242,2.2435,2.2459,2.2468,2.2482,2.2484,2.2492,2.2524,2.2539,2.2564,2.2573,2.2574,2.2612,2.2607,2.2601,2.2587,2.2617,2.2632,2.2638,2.2564,2.2564,2.2564,2.2563,0,0,2.2394,2.2421,2.2428,2.244,2.2461,2.2478,2.2503,2.2527,2.2541,2.2558,2.2581,2.2612,2.2607,2.2621,2.2624,2.2642,2.2676,2.2634,2.2635,2.2643,2.2721,2.2727,2.2734,2.2674,2.2676,2.2676,2.272,0,2.243,2.2473,2.2478,2.2518,2.2539,2.2538,2.2561,2.2577,2.2586,2.2606,2.2616,2.2639,2.2629,2.2638,2.2656,2.2668,2.2692,2.2665,2.2697,2.2698,2.2694,2.2741,2.2747,2.2787,2.2726,2.2727,2.2727,0,2.2476,2.2496,2.2537,2.2558,2.2567,2.2586,2.261,2.2629,2.2648,2.2654,2.267,2.2672,2.27,2.2684,2.2724,2.2705,2.2719,2.2727,2.2729,2.2733,2.2716,2.2748,2.28,2.2807,2.2736,2.2735,2.2735,0,2.2502,2.2538,2.2568,2.2578,2.2602,2.2617,2.2628,2.2646,2.2661,2.2682,2.2692,2.2715,2.2729,2.2748,2.2757,2.2744,2.2797,2.2782,2.2804,2.2804,2.2816,2.2815,2.2872,2.2822,2.2822,2.2822,2.2822,0,2.2542,2.2568,2.2581,2.2599,2.2629,2.2636,2.2666,2.2676,2.2693,2.2715,2.2715,2.2736,2.2746,2.2769,2.2776,2.2809,2.2814,2.2821,2.2823,2.2822,2.2821,2.2832,2.283,2.2823,2.2823,2.2823,2.2822,0,2.2576,2.2585,2.2619,2.2639,2.2645,2.2666,2.2684,2.2703,2.2712,2.274,2.2747,2.2762,2.2789,2.28,2.2833,2.2838,2.2877,2.2875,2.287,2.2871,2.2893,2.2892,2.296,2.2971,2.2912,2.2913,2.2913,0,2.2601,2.2622,2.2644,2.2659,2.2671,2.2694,2.2709,2.2717,2.2733,2.2758,2.2775,2.2802,2.2824,2.2868,2.2882,2.2908,2.2909,2.2931,2.2912,2.2912,2.2911,2.2911,2.2914,2.2935,2.2935,2.2936,2.2936,0,2.2646,2.2651,2.2672,2.2696,2.2715,2.2734,2.2753,2.2765,2.2776,2.2795,2.2822,2.284,2.2874,2.2902,2.2929,2.2941,2.2942,2.2942,2.2949,2.2948,2.2945,2.2949,2.2881,2.294,2.294,2.2939,2.2939,2.2939,2.2678,2.2697,2.2717,2.2742,2.2757,2.2775,2.2795,2.2806,2.2829,2.2858,2.2861,2.2892,2.2913,2.2949,2.2963,2.2988,2.2983,2.2992,2.2995,2.2997,2.3,2.294,2.2993,2.2993,2.2993,2.2993,2.2993,0,2.2725,2.2738,2.2761,2.2788,2.2808,2.2805,2.2827,2.2844,2.2871,2.289,2.2912,2.2946,2.2973,2.299,2.3018,2.3035,2.3036,2.3042,2.3042,2.3045,2.3002,2.2995,2.3041,2.3041,2.3041,2.3041,2.3041,2.3041,2.2752,2.2785,2.2791,2.2832,2.2845,2.2875,2.2887,2.2905,2.2921,2.2958,2.298,2.2991,2.301,2.304,2.3066,2.307,2.3081,2.3089,2.3093,2.3053,2.3048,2.3043,2.3036,2.309,2.3091,2.3134,2.3134,2.3135]},{"header":{"parameterUnit":"m.s-1","parameterCategory":1,"la1":30.2991,"la2":30.254,"lo1":-89.0895,"lo2":-89.0444,"dy":0.0017,"dx":0.0017,"nx":28,"ny":28,"refTime":"2023-08-04T03:00:00:Z","depth":0,"parameterNumber":3,"parameterNumberName":"V-component_of_WINDS"},"data":[0,0,0,0,0,0,0,0,0,0,0,0,0,0,0,0,0,0,0,0,0,0,0,0,0,0,0,0,0,0,0,0,0,0,0,0,0,0,0,0,0,0,0,0,0,0,0,0,0,0,0,0,0,0,0,0,0,0,-2.0902,-2.0902,0,-2.0939,-2.0939,-2.094,-2.0937,-2.0936,-2.0936,-2.0935,-2.0973,-2.0975,-2.0976,0,0,0,0,0,0,0,0,0,0,0,0,0,-2.083,-2.0831,-2.0902,-2.0902,-2.0903,-2.0939,-2.0939,-2.094,-2.0937,-2.0936,-2.0936,-2.0935,-2.0973,-2.0974,-2.0976,0,0,0,0,0,0,0,0,0,0,0,0,0,-2.0863,-2.0831,-2.0902,-2.0906,-2.0906,-2.0939,-2.0939,-2.094,-2.0937,-2.0936,-2.0935,-2.0935,-2.0972,-2.0974,-2.0977,-2.1007,0,0,-2.0984,-2.0985,0,0,0,0,0,0,0,0,-2.0861,-2.0866,-2.0905,-2.0905,-2.0906,-2.0932,-2.0928,-2.0962,-2.0937,-2.0925,-2.0935,-2.0934,-2.096,-2.0963,-2.0972,-2.1009,-2.1011,-2.0984,-2.0985,-2.0986,-2.0987,0,0,0,0,0,0,0,-2.0859,-2.0864,-2.0916,-2.0905,-2.0906,-2.0906,-2.091,-2.0934,-2.0947,-2.0926,-2.0926,-2.0931,-2.0961,-2.097,-2.0973,-2.1011,-2.0984,-2.0986,-2.0987,-2.0988,-2.1077,-2.1078,0,0,0,0,0,0,-2.0856,-2.0862,-2.0915,-2.0917,-2.0881,-2.0908,-2.0912,-2.0925,-2.0947,-2.0949,-2.0931,-2.093,-2.0967,-2.097,-2.0974,-2.1013,-2.0986,-2.0988,-2.099,-2.1076,-2.1077,-2.1078,0,0,0,0,0,0,-2.0854,-2.086,-2.0914,-2.089,-2.0897,-2.091,-2.0924,-2.0926,-2.0935,-2.0951,-2.0953,-2.0939,-2.0966,-2.0971,-2.1,-2.1014,-2.0989,-2.0991,-2.1075,-2.1076,-2.1078,-2.109,0,0,0,0,0,0,-2.0852,-2.086,-2.0871,-2.089,-2.0898,-2.0938,-2.0925,-2.0927,-2.0939,-2.0938,-2.0958,-2.096,-2.0966,-2.0996,-2.1002,-2.1017,-2.0993,-2.1073,-2.1075,-2.1077,-2.1088,-2.1092,-2.1095,0,0,0,0,0,-2.085,-2.0873,-2.0872,-2.0878,-2.0912,-2.0939,-2.0943,-2.0949,-2.094,-2.0953,-2.0962,-2.096,-2.1012,-2.0999,-2.1005,-2.1022,-2.1073,-2.1075,-2.1077,-2.1087,-2.1091,-2.1095,0,0,0,0,0,0,-2.0855,-2.0875,-2.0874,-2.0904,-2.092,-2.0938,-2.0953,-2.0953,-2.0971,-2.0969,-2.0976,-2.098,-2.1009,-2.1018,-2.1003,-2.1053,-2.1041,-2.1045,-2.1046,-2.1051,-2.1054,-2.1051,-2.0995,0,0,0,0,0,-2.086,-2.0879,-2.0896,-2.0921,-2.0929,-2.094,-2.0951,-2.0954,-2.0971,-2.0977,-2.0989,-2.1005,-2.1025,-2.1038,-2.1057,-2.1089,-2.1095,-2.1104,-2.1107,-2.111,-2.1113,-2.1132,-2.1137,-2.1086,-2.1085,-2.1085,0,0,-2.0869,-2.0883,-2.0895,-2.0922,-2.0934,-2.0955,-2.0945,-2.0967,-2.0982,-2.098,-2.1008,-2.1018,-2.1036,-2.1067,-2.1081,-2.1075,-2.1128,-2.1112,-2.1114,-2.1116,-2.1135,-2.114,-2.1144,-2.1087,-2.1087,-2.1087,0,0,-2.0898,-2.091,-2.0933,-2.0946,-2.0965,-2.0972,-2.0978,-2.0996,-2.1003,-2.1031,-2.103,-2.1049,-2.1083,-2.1097,-2.1108,-2.1144,-2.1143,-2.115,-2.1167,-2.1185,-2.119,-2.1193,-2.1208,-2.1212,-2.1153,-2.1153,-2.1153,0,-2.0908,-2.0939,-2.0945,-2.0967,-2.098,-2.0979,-2.1003,-2.1015,-2.104,-2.1049,-2.1042,-2.1086,-2.1098,-2.1133,-2.1142,-2.1151,-2.1158,-2.1148,-2.1188,-2.1192,-2.1196,-2.1209,-2.1215,-2.1154,-2.1154,-2.1154,-2.1153,0,-2.0951,-2.0973,-2.0989,-2.1013,-2.1027,-2.105,-2.106,-2.1074,-2.1076,-2.1085,-2.1114,-2.1129,-2.1152,-2.1161,-2.1162,-2.1196,-2.1192,-2.1187,-2.1175,-2.1201,-2.1215,-2.122,-2.1155,-2.1155,-2.1154,-2.1154,0,0,-2.0984,-2.1012,-2.1018,-2.103,-2.1051,-2.1068,-2.1092,-2.1115,-2.1127,-2.1144,-2.1165,-2.1194,-2.119,-2.1203,-2.1207,-2.1223,-2.1253,-2.1216,-2.1217,-2.1223,-2.1293,-2.1298,-2.1303,-2.1252,-2.1253,-2.1253,-2.1292,0,-2.1016,-2.1058,-2.1064,-2.1101,-2.1122,-2.1123,-2.1143,-2.1159,-2.1168,-2.1187,-2.1197,-2.1218,-2.121,-2.1218,-2.1235,-2.1246,-2.1267,-2.1243,-2.1272,-2.1273,-2.1269,-2.131,-2.1315,-2.135,-2.1297,-2.1297,-2.1298,0,-2.1059,-2.1078,-2.1117,-2.1138,-2.1147,-2.1165,-2.1188,-2.1206,-2.1224,-2.1229,-2.1245,-2.1247,-2.1272,-2.1259,-2.1294,-2.1278,-2.129,-2.1298,-2.1299,-2.1303,-2.1288,-2.1316,-2.1361,-2.1367,-2.1306,-2.1305,-2.1305,0,-2.1081,-2.1116,-2.1145,-2.1155,-2.1179,-2.1192,-2.1203,-2.122,-2.1234,-2.1254,-2.1263,-2.1285,-2.1298,-2.1315,-2.1324,-2.1313,-2.1359,-2.1346,-2.1366,-2.1365,-2.1376,-2.1375,-2.1425,-2.1382,-2.1382,-2.1382,-2.1382,0,-2.1117,-2.1141,-2.1156,-2.1173,-2.1201,-2.1208,-2.1236,-2.1246,-2.1262,-2.1283,-2.1284,-2.1303,-2.1312,-2.1333,-2.134,-2.1369,-2.1375,-2.138,-2.1382,-2.1381,-2.1381,-2.139,-2.1388,-2.1383,-2.1383,-2.1383,-2.1382,0,-2.1146,-2.1157,-2.1188,-2.1209,-2.1215,-2.1234,-2.1252,-2.127,-2.1279,-2.1305,-2.1311,-2.1325,-2.135,-2.136,-2.139,-2.1395,-2.1429,-2.1428,-2.1423,-2.1424,-2.1443,-2.1442,-2.1502,-2.1511,-2.146,-2.1461,-2.1461,0,-2.1169,-2.1188,-2.1211,-2.1225,-2.1236,-2.1258,-2.1273,-2.1281,-2.1297,-2.132,-2.1335,-2.136,-2.138,-2.142,-2.1433,-2.1456,-2.1457,-2.1476,-2.1461,-2.1459,-2.1459,-2.1459,-2.1461,-2.148,-2.148,-2.1481,-2.1481,0,-2.1209,-2.1214,-2.1235,-2.1258,-2.1275,-2.1294,-2.1312,-2.1323,-2.1334,-2.1352,-2.1377,-2.1393,-2.1424,-2.1449,-2.1474,-2.1485,-2.1486,-2.1486,-2.1492,-2.1492,-2.1488,-2.1492,-2.1433,-2.1485,-2.1484,-2.1484,-2.1484,-2.1484,-2.1237,-2.1255,-2.1274,-2.1298,-2.1313,-2.133,-2.1348,-2.136,-2.1381,-2.1408,-2.1411,-2.1439,-2.1458,-2.1491,-2.1504,-2.1526,-2.1521,-2.153,-2.1532,-2.1534,-2.1536,-2.1484,-2.153,-2.153,-2.153,-2.153,-2.153,0,-2.1279,-2.1291,-2.1313,-2.1339,-2.1358,-2.1356,-2.1377,-2.1393,-2.1417,-2.1435,-2.1456,-2.1486,-2.1511,-2.1526,-2.1551,-2.1566,-2.1567,-2.1573,-2.1573,-2.1576,-2.1538,-2.1532,-2.1572,-2.1572,-2.1572,-2.1572,-2.1572,-2.1572,-2.1302,-2.1333,-2.134,-2.1378,-2.1391,-2.1418,-2.143,-2.1446,-2.1461,-2.1495,-2.1516,-2.1526,-2.1543,-2.157,-2.1593,-2.1597,-2.1607,-2.1613,-2.1617,-2.1582,-2.1578,-2.1574,-2.1567,-2.1615,-2.1615,-2.1652,-2.1653,-2.1653]}]]